Time,TemperatureF,DewpointF,PressureIn,WindDirection,WindDirectionDegrees,WindSpeedMPH,WindSpeedGustMPH,Humidity,HourlyPrecipIn,Conditions,Clouds,dailyrainin,SoftwareType,DateUTC
2013-01-14 01:02:00,31.0,-99.9,-100.00,SSW,192,0.0,0.0,-999,-99.99,,,-99.99,,2013-01-14 08:02:00,
2013-01-14 01:12:00,31.0,-99.9,-100.00,SSW,192,0.0,0.0,-999,-99.99,,,-99.99,,2013-01-14 08:12:00,
2013-01-14 01:22:00,31.0,-99.9,-100.00,SSW,192,0.0,0.0,-999,-99.99,,,-99.99,,2013-01-14 08:22:00,
2013-01-14 01:50:00,32.0,-99.9,-100.00,South,182,3.0,7.0,-999,-99.99,,,-99.99,,2013-01-14 08:50:00,
2013-01-14 01:53:00,29.0,-99.9,-100.00,SW,231,1.0,2.0,-999,-99.99,,,-99.99,,2013-01-14 08:53:00,
2013-01-14 02:03:00,32.0,-99.9,-100.00,SW,218,1.0,1.0,-999,-99.99,,,-99.99,,2013-01-14 09:03:00,
2013-01-14 02:12:00,32.0,-99.9,-100.00,SW,218,1.0,1.0,-999,-99.99,,,-99.99,,2013-01-14 09:12:00,
2013-01-14 02:23:00,32.0,-99.9,-100.00,SW,218,1.0,1.0,-999,-99.99,,,-99.99,,2013-01-14 09:23:00,
2013-01-14 02:34:00,32.0,-99.9,-100.00,South,182,3.0,7.0,-999,-99.99,,,-99.99,,2013-01-14 09:34:00,
2013-01-14 02:43:00,32.0,-99.9,-100.00,South,182,3.0,7.0,-999,-99.99,,,-99.99,,2013-01-14 09:43:00,
2013-01-14 03:33:00,31.0,-99.9,-100.00,WSW,237,1.0,1.0,-999,-99.99,,,-99.99,,2013-01-14 10:33:00,
2013-01-14 03:43:00,31.0,-99.9,-100.00,WSW,237,1.0,1.0,-999,-99.99,,,-99.99,,2013-01-14 10:43:00,
2013-01-14 04:23:00,27.0,-99.9,-100.00,NNE,32,3.0,5.0,-999,-99.99,,,-99.99,,2013-01-14 11:23:00,
2013-01-14 04:33:00,26.0,-99.9,-100.00,SW,215,3.0,4.0,-999,-99.99,,,-99.99,,2013-01-14 11:33:00,
2013-01-14 04:43:00,26.0,-99.9,-100.00,SW,215,3.0,4.0,-999,-99.99,,,-99.99,,2013-01-14 11:43:00,
2013-01-14 04:53:00,26.0,-99.9,-100.00,SW,215,3.0,4.0,-999,-99.99,,,-99.99,,2013-01-14 11:53:00,
2013-01-14 06:20:00,27.0,-99.9,-100.00,SSW,199,6.0,6.0,-999,-99.99,,,-99.99,,2013-01-14 13:20:00,
2013-01-14 06:34:00,27.0,-99.9,-100.00,ENE,64,0.0,0.0,-999,-99.99,,,-99.99,,2013-01-14 13:34:00,
2013-01-14 06:43:00,27.0,-99.9,-100.00,ENE,64,0.0,0.0,-999,-99.99,,,-99.99,,2013-01-14 13:43:00,
2013-01-14 06:53:00,26.0,-99.9,-100.00,ENE,59,0.0,3.0,-999,-99.99,,,-99.99,,2013-01-14 13:53:00,
2013-01-14 07:03:00,27.0,-99.9,-100.00,SSW,199,6.0,6.0,-999,-99.99,,,-99.99,,2013-01-14 14:03:00,
2013-01-14 07:13:00,27.0,-99.9,-100.00,SSW,199,6.0,6.0,-999,-99.99,,,-99.99,,2013-01-14 14:13:00,
2013-01-14 07:33:00,26.0,-99.9,-100.00,SSW,209,4.0,4.0,-999,-99.99,,,-99.99,,2013-01-14 14:33:00,
2013-01-14 07:43:00,26.0,-99.9,-100.00,SSW,209,4.0,4.0,-999,-99.99,,,-99.99,,2013-01-14 14:43:00,
2013-01-14 07:50:00,29.0,-99.9,-100.00,NNE,29,6.0,6.0,-999,-99.99,,,-99.99,,2013-01-14 14:50:00,
2013-01-14 08:04:00,27.0,-99.9,-100.00,NW,322,1.0,6.0,-999,-99.99,,,-99.99,,2013-01-14 15:04:00,
2013-01-14 08:13:00,27.0,-99.9,-100.00,NW,322,1.0,6.0,-999,-99.99,,,-99.99,,2013-01-14 15:13:00,
2013-01-14 08:34:00,29.0,-99.9,-100.00,NNE,29,6.0,6.0,-999,-99.99,,,-99.99,,2013-01-14 15:34:00,
2013-01-14 08:43:00,29.0,-99.9,-100.00,NNE,29,6.0,6.0,-999,-99.99,,,-99.99,,2013-01-14 15:43:00,
2013-01-14 09:20:00,33.0,-99.9,-100.00,WSW,255,0.0,3.0,-999,-99.99,,,-99.99,,2013-01-14 16:20:00,
2013-01-14 09:23:00,32.0,-99.9,-100.00,WSW,239,1.0,3.0,-999,-99.99,,,-99.99,,2013-01-14 16:23:00,
2013-01-14 09:33:00,32.0,-99.9,-100.00,WSW,239,1.0,3.0,-999,-99.99,,,-99.99,,2013-01-14 16:33:00,
2013-01-14 09:54:00,32.0,-99.9,-100.00,NNE,18,7.0,7.0,-999,-99.99,,,-99.99,,2013-01-14 16:54:00,
2013-01-14 10:04:00,33.0,-99.9,-100.00,WSW,255,0.0,3.0,-999,-99.99,,,-99.99,,2013-01-14 17:04:00,
2013-01-14 10:12:00,33.0,-99.9,-100.00,WSW,255,0.0,3.0,-999,-99.99,,,-99.99,,2013-01-14 17:12:00,
2013-01-14 11:00:00,41.0,-99.9,-100.00,SSW,206,5.0,5.0,-999,-99.99,,,-99.99,,2013-01-14 18:00:00,
2013-01-14 11:33:00,39.0,-99.9,-100.00,SSW,195,6.0,10.0,-999,-99.99,,,-99.99,,2013-01-14 18:33:00,
2013-01-14 11:43:00,39.0,-99.9,-100.00,SSW,195,6.0,10.0,-999,-99.99,,,-99.99,,2013-01-14 18:43:00,
2013-01-14 11:53:00,41.0,-99.9,-100.00,SSW,206,5.0,5.0,-999,-99.99,,,-99.99,,2013-01-14 18:53:00,
2013-01-14 13:00:00,42.0,-99.9,-100.00,SE,135,2.0,4.0,-999,-99.99,,,-99.99,,2013-01-14 20:00:00,
2013-01-14 13:53:00,42.0,-99.9,-100.00,SE,135,2.0,4.0,-999,-99.99,,,-99.99,,2013-01-14 20:53:00,
2013-01-14 14:00:00,47.0,-99.9,-100.00,NNE,20,1.0,4.0,-999,-99.99,,,-99.99,,2013-01-14 21:00:00,
2013-01-14 14:54:00,47.0,-99.9,-100.00,NNE,20,1.0,4.0,-999,-99.99,,,-99.99,,2013-01-14 21:54:00,
2013-01-14 16:03:00,47.0,-99.9,-100.00,SSW,205,5.0,5.0,-999,-99.99,,,-99.99,,2013-01-14 23:03:00,
2013-01-14 16:12:00,47.0,-99.9,-100.00,SSW,205,5.0,5.0,-999,-99.99,,,-99.99,,2013-01-14 23:12:00,
2013-01-14 16:23:00,47.0,-99.9,-100.00,SSW,205,5.0,5.0,-999,-99.99,,,-99.99,,2013-01-14 23:23:00,
2013-01-14 17:00:00,44.0,-99.9,-100.00,West,276,1.0,5.0,-999,-99.99,,,-99.99,,2013-01-15 00:00:00,
2013-01-14 17:53:00,44.0,-99.9,-100.00,West,276,1.0,5.0,-999,-99.99,,,-99.99,,2013-01-15 00:53:00,
2013-01-14 18:00:00,41.0,-99.9,-100.00,NNW,340,3.0,4.0,-999,-99.99,,,-99.99,,2013-01-15 01:00:00,
2013-01-14 18:53:00,41.0,-99.9,-100.00,NNW,340,3.0,4.0,-999,-99.99,,,-99.99,,2013-01-15 01:53:00,
2013-01-14 20:00:00,39.0,-99.9,-100.00,NW,321,1.0,3.0,-999,-99.99,,,-99.99,,2013-01-15 03:00:00,
2013-01-14 20:53:00,39.0,-99.9,-100.00,NW,321,1.0,3.0,-999,-99.99,,,-99.99,,2013-01-15 03:53:00,
2013-01-14 22:10:00,36.0,-99.9,-100.00,NNE,19,0.0,1.0,-999,-99.99,,,-99.99,,2013-01-15 05:10:00,
2013-01-14 22:53:00,36.0,-99.9,-100.00,NNE,19,0.0,1.0,-999,-99.99,,,-99.99,,2013-01-15 05:53:00,
2013-01-14 23:03:00,36.0,-99.9,-100.00,NNE,19,0.0,1.0,-999,-99.99,,,-99.99,,2013-01-15 06:03:00,